Ana Sayfa
METAR-TAF:

METAR-TAF

Havaalanları :

Statesville Regional Airport

Statesville, Kuzey Carolina, Amerika Birleşik Devletleri

Enlem: 35-45-55N, Boylam: 080-57-24W, yükseklik: 294 m

Güncel hava durumu gözlemi

Rapor saat 02:35 UTC de 7 dakika önce yapıldı.
Rüzgar kuzeydan 7 kt
Sıcaklık 1°C
Nem 51%
Basınç 1021 hPa
Görüş mesafesi: 16.1 km
Açık gökyüzü

METAR: KSVH 200235Z AUTO 36007KT 10SM CLR 01/M08 A3015 RMK AO2 T00051082

Saat: 21:42 (02:42 UTC)


TAF: eksik

4.000'den fazla havaalanı için hava durumu gözlemleri ve tahminleri (METAR ve TAF raporları).

Kullanılabilir istasyonlar harita üzerinde sarı ve kırmızı noktalarla gösterilir.

İstasyonun adını görmek için fareyi noktanın üzerinde gezdirin.

Sonrasında hava gözlem ve tahminlerini görmek için tıklayın.

Haritayı değiştirmek için: yaklaştırmak için siyah artı işaretli yeşil düğmeye ve uzaklaştırmak için de eksi işaretli düğmeye hızla tıklayın; bitişik haritalar için yeşil okları kullanın.


METAR-TAF: